Starlink 35725

operational
NORAD ID: 67565 Int'l Des: 2026-016 Owner: SPXS Country: US Constellation: starlink
LEOCIRCULARRETROGRADE

About Starlink 35725

Description loading...

Live Position

Loading 3D Globe...

Upcoming Passes

Altitude History

Altitude vs Time

uPlot chart will show altitude changes over time

Two-Line Element Set

1 67565U 26016E 26066.10970382 .00388304 00000-0 24682-2 0 9994
2 67565 97.2831 126.4156 0001670 139.7204 220.4185 15.75372017 6394
Epoch: Mar 7, 2026 • Age: 15 hours

Current Status

Altitude 347.1 km
Velocity 7.70 km/s
Sub-Earth Point 31.60°N, 92.71°E
Launch Date Jan 25, 2026
Age 0.1 years
Type internet

Technical Details

Classification Payload
Mass 575.00 kg
Dry Mass 530.00 kg
Total Mass 575.00 kg
Length 0.30 m
Diameter 4.10 m
Span 29.00 m
Shape Box + pan
Manufacturer SPXS
Bus Type Starlink V2MO
Phase Status In Orbit
Owner/State SPXS/US

Large Constellations

Loading constellations...